Location: Baix
(44.7118°N, 4.7648°E)
Time: 05:28:00
(UTC+00:00)

Vanguard 1 - Pass Details

Date: 05 December 2020
Orbit: 648 x 3834 km, 34.3° (Epoch: 21 January)

Event Time Altitude Azimuth Distance (km) Brightness Sun altitude
Rises 03:43:19 0° 235° (SW) 3,024 - -34.6°
Reaches altitude 10° 03:45:38 10° 223° (SW) 2,233 - -34.2°
Maximum altitude 03:49:56 28° 163° (SSE) 1,619 - -33.4°
Exits shadow 03:50:06 28° 160° (SSE) 1,633 11.3 -33.4°
Drops below altitude 10° 03:56:05 10° 107° (ESE) 3,259 13.5 -32.3°
Sets 04:00:15 0° 98° (E) 4,746 14.7 -31.6°
